Hourly Data Report for September 03, 2018

SHEARWATER RCS
NOVA SCOTIA
Current Station Operator: ECCC - MSC

44°37'47.000" N
63°30'48.000" W
24.00 m
8205092
71264
AAW

Download Data

Hourly Data (September 2018)
Hourly Data Report for September 3, 2018
TIME Temp Definition
°C
Dew Point Definition
°C
Rel Hum Definition
%
Wind Dir Definition
10's deg

Wind Spd Definition
km/h
Visibility Definition
km
Stn Press Definition
kPa
Hmdx Definition


Wind Chill Definition


Weather Definition


00:00 17.5 14.3 82 22 4   102.24     LegendNANA
01:00 17.5 14.9 85 27 5   102.23     LegendNANA
02:00 17.0 14.9 88 23 8   102.23     LegendNANA
03:00 17.4 15.1 87 24 6   102.23     LegendNANA
04:00 16.6 14.5 88 22 3   102.23     LegendNANA
05:00 15.8 14.5 92 24 4   102.24     LegendNANA
06:00 15.5 14.2 92   0   102.27     LegendNANA
07:00 18.7 16.2 85 20 2   102.27     LegendNANA
08:00 19.9 16.4 80 22 8   102.28     LegendNANA
09:00 21.8 15.9 69 22 13   102.28 26   LegendNANA
10:00 23.1 16.8 68 19 14   102.25 28   LegendNANA
11:00 23.5 16.2 63 19 17   102.21 28   LegendNANA
12:00 23.9 15.8 60 19 19   102.16 28   LegendNANA
13:00 24.3 15.1 56 21 20   102.12 28   LegendNANA
14:00 24.3 15.6 58 20 16   102.08 29   LegendNANA
15:00 23.2 17.0 68 18 23   101.99 28   LegendNANA
16:00 22.6 16.9 70 18 23   101.93 28   LegendNANA
17:00 22.0 17.0 74 20 22   101.96 27   LegendNANA
18:00 21.4 17.4 78 20 19   101.88 27   LegendNANA
19:00 20.4 17.6 84 20 14   101.89 26   LegendNANA
20:00 20.2 17.9 87 20 15   101.91 26   LegendNANA
21:00 20.4 17.7 85 21 15   101.89 26   LegendNANA
22:00 20.2 17.8 86 19 12   101.85 26   LegendNANA
23:00 20.5 18.2 87 21 14   101.85 27   LegendNANA

Notes on Data Quality.

Legend

  • E = Estimated
  • M = Missing
  • NA = Not Available*
  • [empty] = Indicates an unobserved value
Date modified: